Simultaneous Nadir Overpasses (SNOs) Predictions

Prediction of SNOs between AQUA and GOES-15 Satellite Orbit:

Table of predicted SNOs for the next 14.0 days since TLE Epoch: 12/5/2014
Index Date Time (AQUA) AQUA Lat,Lon GOES-15 Lat,Lon Distance(km) Time Diff (sec)
1 12/05/2014 22:23:02 0.74,-131.93 0.03,-135.30 382.65 80
2 12/06/2014 10:44:19 0.31,-137.10 -0.05,-135.34 199.84 80
3 12/08/2014 10:32:10 -0.28,-134.15 -0.05,-135.37 138.56 80
4 12/08/2014 22:53:36 -0.76,-139.36 0.07,-135.34 455.78 80
5 12/10/2014 10:20:02 -0.96,-131.21 -0.04,-135.40 476.65 80
6 12/10/2014 22:41:27 -0.14,-136.41 0.06,-135.37 117.62 80
7 12/12/2014 22:29:17 0.45,-133.45 0.06,-135.39 220.29 80
8 12/13/2014 10:50:34 0.58,-138.62 -0.08,-135.43 361.70 80
9 12/15/2014 10:38:24 -0.03,-135.66 -0.07,-135.45 24.24 80
10 12/17/2014 10:26:14 -0.66,-132.71 -0.07,-135.46 312.74 80
11 12/17/2014 22:47:37 -0.47,-137.89 0.08,-135.42 282.47 80




NCC Satellite Simultaneous Nadir Overpasses (SNOs) Prediction Service
